Regional Weather Roundup
Issued by NWS San Angelo, TX

Current Version | Previous Version | Text Only | Print | Product List | Glossary On
Versions: 1 2 3 4 5 6 7 8 9 10 11 12 13 14 15 16 17 18 19 20 21 22 23 24 25 26 27 28 29 30 31 32 33 34 35 36 37 38 39 40 41 42 43 44 45 46 47 48 49 50
000
ASUS44 KSJT 220610
RWRSJT
WEST CENTRAL TEXAS REGIONAL WEATHER ROUNDUP
NATIONAL WEATHER SERVICE SAN ANGELO TX
1200 AM CST MON DEC 22 2014

NOTE: "FAIR" INDICATES FEW OR NO CLOUDS BELOW 12,000 FEET WITH NO
SIGNIFICANT WEATHER AND/OR OBSTRUCTIONS TO VISIBILITY.

TXZ049-054-064>066-071>073-076>078-098-099-113-114-127-128-139-140-
154-155-168>170-220700
...LOCATIONS ACROSS WEST CENTRAL TEXAS...

CITY           SKY/WX    TMP DP  RH WIND       PRES   REMARKS
SAN ANGELO     PTCLDY    51  47  86 SW16G24   29.74F
ABILENE        PTCLDY    50  43  77 S25G32    29.67S
DYESS AFB      NOT AVBL
JUNCTION       CLOUDY    54  49  83 SW8       29.81F
SWEETWATER     PTCLDY    52  40  64 SW17      29.68F
BROWNWOOD      PTCLDY    46  45  93 S6        29.74F
COLEMAN        PTCLDY    47  45  91 S14       29.72F
SONORA         CLOUDY    52  50  93 S9        29.84F
OZONA          CLOUDY    50  46  87 S10G21    29.83S
BRADY          CLOUDY    48  46  93 SW14      29.76S
$$

TEXAS PANHANDLE/OKLAHOMA PANHANDLE

CITY           SKY/WX    TMP DP  RH WIND       PRES   REMARKS
AMARILLO       CLEAR     43  28  55 W12       29.60R WCI  37
BORGER         PTCLDY    41  27  57 W10       29.57R WCI  35
CANADIAN       CLOUDY    45  43  95 S3        29.57S
DALHART        PTCLDY    43  26  51 W15       29.62R WCI  36
DUMAS          CLEAR     41  26  54 W15       29.60R WCI  33
GUYMON         NOT AVBL
HEREFORD       CLEAR     50  31  48 NW17      29.62S
PAMPA          PTCLDY    39  30  71 SW9       29.57S WCI  33
PERRYTON       CLEAR     34  32  94 S7        29.55F WCI  27
$$

SOUTHERN PANHANDLE/SOUTH PLAINS/ROLLING PLAINS

CITY           SKY/WX    TMP DP  RH WIND       PRES   REMARKS
LUBBOCK        MOCLDY    54  30  40 W22G31    29.61F
SNYDER         PTCLDY    53  31  42 SW14      29.66S
CHILDRESS      CLEAR     43  32  65 W8        29.55S WCI  38
SEMINOLE       CLOUDY    53  28  37 W15       29.73R
$$

PERMIAN BASIN

CITY           SKY/WX    TMP DP  RH WIND       PRES   REMARKS
MIDLAND        CLOUDY    57  27  31 SW17      29.72F
ODESSA         CLOUDY    55  25  31 W12       29.74F
WINK           CLOUDY    58  25  28 W14       29.74F
$$

FAR WEST/SOUTHWEST MOUNTAINS/TRANS PECOS

CITY           SKY/WX    TMP DP  RH WIND       PRES   REMARKS
ALPINE         MOCLDY    58  23  26 W21G31    29.92F
DRYDEN           N/A     47  46  97 NE5       29.78F
EL PASO        MOCLDY    57  28  33 W26       29.91F
FORT STOCKTON  PTCLDY    54  24  31 SW13      29.79S
GUADALUPE PASS NOT AVBL
MARFA          MOCLDY    50  21  32 W16       29.95R
PECOS          PTCLDY    60  27  28 W18       29.78S
$$

DALLAS/FORT WORTH METROPLEX

CITY           SKY/WX    TMP DP  RH WIND       PRES   REMARKS
DFW AIRPORT    CLOUDY    53  48  83 S14G26    29.71F
FTW MEACHAM    CLOUDY    53  48  83 S20G25    29.70F
DAL-EXECUTIVE  CLOUDY    54  49  83 S18G24    29.71F
GRAND PRAIRIE  CLOUDY   N/A N/A N/A MISG      29.74F
ADDISON        CLOUDY    53  49  86 S10G22    29.73F
MESQUITE       CLOUDY    52  49  89 S14       29.74F
LANCASTER      CLOUDY    52  48  85 S13       29.75F
$$

NORTH CENTRAL TEXAS

CITY           SKY/WX    TMP DP  RH WIND       PRES   REMARKS
SHRMAN/DENISON CLOUDY    51  49  93 SE14      29.72F
GAINESVILLE    CLOUDY    50  47  90 S16       29.70F
BRIDGEPORT     MOCLDY    50  48  93 S10       29.69F
DENTON         CLOUDY    52  48  86 S16       29.70F
WAXAHACHIE     CLOUDY    52  51  98 S14       29.75F
GRANBURY       CLOUDY    52  47  85 S12G18    29.73S
$$

WESTERN NORTH TEXAS

CITY           SKY/WX    TMP DP  RH WIND       PRES   REMARKS
WICHITA FALLS  PTCLDY    50  45  83 S16       29.58F
VERNON         CLEAR     48  41  75 S9        29.56F
BRECKENRIDGE   CLEAR     53  44  71 S21       29.65F
COMANCHE       MOCLDY    48  48 100 S22G29    29.72F
$$

CENTRAL AND SOUTH CENTRAL TEXAS

CITY           SKY/WX    TMP DP  RH WIND       PRES   REMARKS
AUSTIN/BERGSTM CLOUDY    56  53  90 S9        29.84S
WACO           CLOUDY    55  50  83 S16       29.77F
HILLSBORO      CLOUDY    54  49  85 S14G20    29.75F
TEMPLE         CLOUDY    55  46  71 S18G30    29.78F
KILLEEN-GRAY   CLOUDY    53  49  86 S16G24    29.78F
FORT HOOD      CLOUDY    54  49  83 S12       29.78F
GEORGETOWN     CLOUDY    57  52  82 S12G21    29.80F
LAGO VISTA     CLOUDY    56  51  84 S13G22    29.83F
SAN MARCOS     CLOUDY    55  52  88 SW8       29.85S
NEW BRAUNFELS  CLOUDY    56  53  90 SW5       29.85S
RANDOLPH AFB   CLOUDY    55  54  94 SW5       29.86R
SAN ANTONIO    CLOUDY    56  53  90 S5        29.86S
STINSON        CLOUDY    56  53  90 CALM      29.85S
PLEASANTON     NOT AVBL
LA GRANGE      CLOUDY    58  56  92 S7        29.85S
GIDDINGS       CLOUDY    56  53  90 S9        29.89R
$$

EAST TEXAS

CITY           SKY/WX    TMP DP  RH WIND       PRES   REMARKS
PARIS          CLOUDY    48  45  87 S10       29.78F
CLARKSVILLE    NOT AVBL
TYLER          CLOUDY    51  46  83 S10       29.79F
LONGVIEW       CLOUDY    51  46  83 SE9       29.83F
PALESTINE      CLOUDY    52  49  91 SE8       29.83F
NACOGDOCHES    CLOUDY    50  46  87 S3        29.87R
$$

TEXAS HILL COUNTRY AND EDWARDS PLATEAU

CITY           SKY/WX    TMP DP  RH WIND       PRES   REMARKS
LLANO          MOCLDY    45  45 100 CALM      29.84F
HORSESHOE BAY  CLOUDY    55  49  81 W3        29.82S
KERRVILLE      CLOUDY    51  49  94 S8        29.85S FOG
FREDERICKSBRG  CLOUDY    51  49  93 SW10      29.84F
ROCKSPRINGS    CLOUDY    50  48  93 S12G17    29.84F FOG
HONDO          CLOUDY    54  51  90 E3        29.88R
UVALDE         CLOUDY    48  47  99 NE5       29.87R
DEL RIO        MOCLDY    50  48  93 E13       29.81F
$$

SOUTHEAST TEXAS

CITY           SKY/WX    TMP DP  RH WIND       PRES   REMARKS
COLLEGE STN    CLOUDY    56  52  86 S12       29.85S
CALDWELL       CLOUDY    55  54  94 S9        29.87F
CROCKETT         N/A     55  54  94 S6        29.88S
BRENHAM        CLOUDY    58  55  91 S7        29.87S
HUNTSVILLE     CLOUDY    55  51  86 S8        29.86S
CONROE         CLOUDY    54  52  93 S9        29.88S
HOUSTON BUSH   CLOUDY    56  54  93 SE6       29.87F
HOUSTON HOBBY  MOCLDY    56  55  97 SE5       29.86F
PERLAND        CLOUDY    58  55  90 SE6       29.88F FOG
WHARTON        CLOUDY    56  56  97 E6        29.86F FOG
$$

THE UPPER TEXAS COAST

CITY           SKY/WX    TMP DP  RH WIND       PRES   REMARKS
ORANGE         CLOUDY    54  52  95 E9        29.92F
PORT ARTHUR    CLOUDY    55  52  89 E8        29.89F
GALVESTON      CLOUDY    61  60  97 SE8       29.89F
ANGLETON       CLOUDY    57  57 100 CALM      29.87F
BAY CITY         N/A     57  57 100 CALM      29.86F FOG
$$

TEXAS COASTAL BEND, RIO GRANDE PLAINS DEEP SOUTH TEXAS

CITY           SKY/WX    TMP DP  RH WIND       PRES   REMARKS
VICTORIA       CLOUDY    59  57  93 CALM      29.85F FOG
BEEVILLE       CLOUDY    58  58  99 S6        29.85F FOG
ROCKPORT       PTCLDY    60  58  92 CALM      29.85F
PORT ARANSAS   MOCLDY    62  61  97 CALM      29.84F
PORT LAVACA    PTCLDY    59  58  97 SE5       29.85F FOG
CORPUS CHRISTI PTCLDY    56  55  97 S6        29.85F
KINGSVILLE NAS CLOUDY    60  60 100 S6        29.85F FOG
COTULLA        CLOUDY    55  54  96 S6        29.83F
LAREDO         NOT AVBL
BROWNSVILLE    CLOUDY    62  60  93 W5        29.90S FOG
PORT ISABEL    MOCLDY    60  59  96 SW6       29.88F FOG
HEBBRONVILLE   HVY RAIN  57  56  97 S8        29.86F
MCALLEN        CLOUDY    60  58  92 CALM      29.89F FOG
WESLACO        CLOUDY    61  58  88 S3        29.89F FOG
FALFURRIAS     NOT AVBL
EDINBURG       CLOUDY    61  58  87 CALM      29.89F
$$



USA.gov is the U.S. government's official web portal to all federal, state and local government web resources and services.